Portada
METAR-TAF:

METAR-TAF

Aeroports :

Ōdate-Noshiro, Japó

latitud: 40-11N, longitud: 140-12E, altitud: 84 m

Observació

L'informe es va fer fa 51 minuts, a les 05:00 UTC
Vent 3 kt amb direcció variable
Temperatura 27°C
Humitat 62%
Pressió 1009 hPa
Visibilitat 10 km o més
Escasses núvols a una alçada de 3000 ft
Cel ennuvolat

METAR: RJSR 150500Z VRB03KT 9999 FEW030 BKN/// 27/19 Q1009

Hora: 14:51 (05:51 UTC)


TAF: manca

Observacions i pronòstics meteorològics de més de 4000 aeroports (METAR i TAF).

Les estacions disponibles són els punts grocs i vermells al mapa.

Posi el ratolí al punt desitjat per veure el nom de l'estació.

Feu clic per veure les observacions i els pronòstics meteorològics.

Per canviar el mapa: feu clic els botons verds amb una creu de color negre per apropar; al botó verd amb un guió per allunyar la imatge; o en les fletxes verdes per a mapes adjacents.


METAR-TAF: